カタログに戻る

PEGASUS R/B

運用中LEO
NORAD 22639·ROCKET BODY·🇺🇸 United States

打ち上げ Apr 25, 1993 から Vandenberg Space Force Base

Loading…

次のパス (今後24時間)

TLE

最新Source: Space-Track

元期: Sep 14, 2026, 09:19 UTC

1 22639U 93026B   26257.38851552  .00000096  00000-0  55239-4 0  9994
2 22639  69.9192 138.6689 0060620  70.5234 290.2426 14.33009481122177

AllMySatでPEGASUS R/Bをリアルタイム追跡

Download on the App Store